Regional Weather Roundup
Issued by NWS

Home | Current Version | Previous Version | Graphics & Text | Print | Product List | Glossary On
Versions: 1 2 3 4 5 6 7 8 9 10 11 12 13 14 15 16 17 18 19 20 21 22 23 24 25 26 27 28 29 30 31 32 33 34 35 36 37 38 39 40 41 42 43 44 45 46 47 48 49 50
000
ASUS45 KCYS 222310
RWRWY

WYOMING REGIONAL WEATHER ROUNDUP
NATIONAL WEATHER SERVICE CHEYENNE WY
500 PM MDT FRI AUG 22 2014

NOTE:  "FAIR" INDICATES FEW OR NO CLOUDS BELOW 12,000 FEET
WITH NO SIGNIFICANT WEATHER AND/OR OBSTRUCTIONS TO VISIBILITY.

WYZ001-230000-
YELLOWSTONE NATIONAL PARK

CITY           SKY/WX    TMP DP  RH WIND       PRES   REMARKS
LK YELLOWSTONE   N/A     50  41  71 CALM      30.19S
W YELLOWSTONE  NOT AVBL

$$
WYZ002>013-054>058-071-098>099-230000-
NORTHERN WYOMING

CITY           SKY/WX    TMP DP  RH WIND       PRES   REMARKS
JACKSON        CLOUDY    48  45  87 CALM      30.16S
CODY           CLOUDY    64  50  59 CALM      30.03S
GREYBULL       MOSUNNY   70  53  54 CALM      29.97F
WORLAND        MOSUNNY   73  50  44 N12       29.97F
SHERIDAN       MOSUNNY   72  56  57 NW7       30.00F
BUFFALO        CLOUDY    66  56  70 NW10      30.04S
GILLETTE       CLOUDY    78  53  41 E14G24    29.95F
HULETT         FAIR      72  59  64 MISG      30.02
NEWCASTLE      FAIR      81  46  30 SE10      29.99

$$
WYZ014>020-022>026-101>103-230000-
CENTRAL WYOMING

CITY           SKY/WX    TMP DP  RH WIND       PRES   REMARKS
BIG PINEY      PTSUNNY   52  44  74 N16       30.16F
PINEDALE       MOCLDY    52  41  66 NW15      30.16F
DUBOIS         CLOUDY    52  41  66 NW9       30.16S
LANDER         MOSUNNY   70  43  37 N15       30.02F
RIVERTON       MOSUNNY   71  42  35 NW21      30.02F
CASPER         CLOUDY    70  48  45 SW10      30.00S
DOUGLAS        CLOUDY    77  48  35 SE15G24   30.01S

$$
WYZ021-027>030-104>119-230000-
SOUTHERN WYOMING

CITY           SKY/WX    TMP DP  RH WIND       PRES   REMARKS
EVANSTON       LGT RAIN  54  46  74 N23G32    30.11R
KEMMERER       CLOUDY    54  43  66 NW21      30.13F
FORT BRIDGER   CLOUDY    58  49  74 NE14G20   30.14R
ROCK SPRINGS   PTSUNNY   62  50  64 NW14      30.06F
DIXON          MOCLDY    62  53  73 E10       30.14F
RAWLINS        CLOUDY    72  40  31 S23G29    30.08F
SARATOGA       CLOUDY    63  46  55 MISG      30.12F
LARAMIE        CLOUDY    65  49  56 SE24G33   30.14F
CHEYENNE       CLOUDY    68  54  60 S15G25    30.11F
TORRINGTON     CLOUDY    73  59  61 E21G28    30.00F
PINE BLUFFS    MOCLDY    72  50  46 S14G20    30.08F

$$


USA.gov is the U.S. government's official web portal to all federal, state and local government web resources and services.